This demonstration page uses our WeatherBlox Daily Observations layout. Learn more.

Left ArrowRight Arrow

53.62937, 11.41316

Hourly Observations for September 14, 2015

Temp ( °F °C ) Dew Point ( °F °C ) Humidity (%) Winds ( mph kmh ) Pressure ( in mb ) Visibility ( mi km ) Precip ( " mm )
6:20 am 06:20 Mostly Clear 57 14 54 12 88 88 E 7 11 29.65 1004 7 11 N/A
6:50 am 06:50 Mostly Sunny 59 15 55 13 88 88 ENE 8 13 29.65 1004 7 11 N/A
7:20 am 07:20 Mostly Sunny 59 15 55 13 88 88 E 7 11 29.65 1004 7 11 N/A
7:50 am 07:50 Mostly Sunny 59 15 55 13 88 88 E 7 11 29.65 1004 7 11 N/A
8:20 am 08:20 Mostly Sunny 61 16 55 13 83 83 E 9 15 29.62 1003 7 11 N/A
8:50 am 08:50 Mostly Sunny 63 17 55 13 77 77 E 7 11 29.62 1003 7 11 N/A
9:20 am 09:20 Mostly Sunny 64 18 55 13 73 73 E 6 9 29.62 1003 7 11 N/A
9:50 am 09:50 Mostly Sunny 64 18 57 14 78 78 SE 5 7 29.62 1003 7 11 N/A
10:20 am 10:20 Mostly Sunny 66 19 57 14 73 73 ESE 6 9 29.62 1003 7 11 N/A
10:50 am 10:50 Mostly Sunny 66 19 57 14 73 73 SE 8 13 29.62 1003 7 11 N/A
11:20 am 11:20 Mostly Sunny 66 19 59 15 78 78 ESE 7 11 29.59 1002 7 11 N/A
11:50 am 11:50 Mostly Sunny 66 19 57 14 73 73 ESE 9 15 29.59 1002 7 11 N/A
12:20 pm 12:20 Mostly Sunny 66 19 59 15 78 78 SE 9 15 29.59 1002 7 11 N/A
12:50 pm 12:50 Mostly Sunny 66 19 59 15 78 78 SSE 10 17 29.59 1002 7 11 N/A
1:20 pm 13:20 Cloudy with Light Showers 66 19 59 15 78 78 SSE 12 19 29.62 1003 30 48 N/A
1:50 pm 13:50 Cloudy with Light Rain 64 18 59 15 83 83 SSE 8 13 29.59 1002 30 48 N/A
2:20 pm 14:20 Cloudy with Light Rain 63 17 61 16 94 94 SSE 3 6 29.59 1002 4 7 N/A
2:50 pm 14:50 Cloudy with Rain 63 17 61 16 94 94 SSE 7 11 29.62 1003 4 6 N/A
3:20 pm 15:20 Cloudy with Rain 63 17 61 16 94 94 S 10 17 29.62 1003 2 4 N/A
3:50 pm 15:50 Mostly Cloudy with Rain 61 16 59 15 94 94 S 7 11 29.62 1003 2 4 N/A
4:20 pm 16:20 Mostly Cloudy with Rain 63 17 61 16 94 94 VRB 2 4 29.59 1002 3 4 N/A
4:50 pm 16:50 Cloudy 63 17 61 16 94 94 SE 5 7 29.59 1002 4 6 N/A
5:20 pm 17:20 Cloudy 63 17 61 16 94 94 SE 6 9 29.59 1002 6 9 N/A
5:50 pm 17:50 Cloudy 63 17 61 16 94 94 S 8 13 29.59 1002 30 48 N/A
6:20 pm 18:20 Partly Cloudy 61 16 59 15 94 94 SSE 9 15 29.59 1002 30 48 N/A
6:50 pm 18:50 Mostly Sunny 61 16 59 15 94 94 SSE 7 11 29.59 1002 7 11 N/A

Powered by AerisWeather